ENTOENHD

Guest
Details From ENTO - TORP
To ENHD - Haugesund Lufthavn Karmoy
Flight Number -
Tags generated
Created
Modified
Stats Distance 155 nm / 287 km
Max Altitude 14,000 ft / 4,267 m
Waypoints 3
Social Downloads 2
Likes 0
Share VATSIM

Download

Looking for another format? Having issues loading an existing format? Contact us
Advertisement - Login to hide

Notes

Basic altitude profile: - Ascent Rate: 2500ft/min - Ascent Speed: 250kts - Cruise Altitude: 25000ft - Cruise Speed: 420kts - Descent Rate: 1500ft/min - Descent Speed: 250kts Options: - Use NATs: yes - Use PACOTS: yes - Use low airways: no - Use high airways: yes

Route

ENTO SOTIR ENHD

ID Type Via Altitude Latitude Longitude Leg Dist Tot Dist Heading (true) Name
O ENTO APT - 0 ft / 0 m 59.18666˚ 10.25860˚ - 0 nm - TORP
SOTIR FIX - 14,000 ft / 4,267 m 59.32639˚ 7.50000˚ 85 nm 85 nm 277° / 274° -
O ENHD APT - 0 ft / 0 m 59.34402˚ 5.21087˚ 70 nm 155 nm 272° / 270° Haugesund Lufthavn Karmoy

Altitude Profile

Advertisement - Login to hide

ENTO

Details ICAO ENTO (TRF)
Name TORP
Region Norway
Timezone Europe/Oslo (UTC+2.0)
Stats Elevation 286 ft / 87 m (AMSL)
Location 59.186662° 10.258596°
Runways 1
Magnetic Variation 3.069° E

METAR

ENTO 240020Z AUTO 19003KT 9999 NCD 12/12 Q1028

Decode

TAF

TAF ENTO 232300Z 2400/2424 VRB03KT CAVOK BECMG 2408/2410 20010KT BECMG 2418/2420 VRB03KT

Decode

Departure Runways

ID Width Length Bearing (true) Bearing (mag) Surface Threshold Offset Overrun Length
18 148 ft / 45 m 9,820 ft / 2,993 m 179.40° 176.33° Asphalt 1,231 ft / 375 m 0 ft / 0 m
36 148 ft / 45 m 9,820 ft / 2,993 m 359.40° 356.33° Asphalt 1,231 ft / 375 m 0 ft / 0 m

ENHD

Details ICAO ENHD (HAU)
Name Haugesund Lufthavn Karmoy
Region Norway
Timezone Europe/Oslo (UTC+2.0)
Stats Elevation 76 ft / 23 m (AMSL)
Location 59.344015° 5.210871°
Runways 1
Magnetic Variation 0.965° E

METAR

ENHD 240020Z AUTO 32004KT 290V350 9999 OVC008/// 08/07 Q1029

Decode

TAF

Not found

Destination Runways

ID Width Length Bearing (true) Bearing (mag) Surface Threshold Offset Overrun Length
14 148 ft / 45 m 6,940 ft / 2,115 m 134.35° 133.39° Asphalt 197 ft / 60 m 0 ft / 0 m
32 148 ft / 45 m 6,940 ft / 2,115 m 314.38° 313.42° Asphalt 197 ft / 60 m 0 ft / 0 m

Approach Navaids

Runway Type Ident Frequency Range Bearing (true) Bearing (mag) Slope Elevation
14 Localiser HD 109.10 MHz 18 nm / 33 km 134.37° 133.41° - 96 ft / 29 m (AMSL)
14 Glidescope HD 109.10 MHz 10 nm / 19 km 134.36° 133.40° 3.00° 76 ft / 23 m (AMSL)